Chignik, AK

9:31 AM AKST on February 27, 2017 (GMT -0900)
Chignik

Weather History for PAJC - January, 2013

Change the Weather History Date:

Sunday, January 20, 2013

  Actual Average Record
Temperature  
Mean Temperature 39 °F -  
Max Temperature 41 °F 33 °F 95 °F (2004)
Min Temperature 37 °F 26 °F 15 °F (2012)
Degree Days  
Heating Degree Days 26    
Moisture  
Dew Point 28 °F    
Average Humidity 66    
Maximum Humidity 75    
Minimum Humidity 56    
Precipitation  
Precipitation 0.03 in - - ()
Sea Level Pressure  
Sea Level Pressure 29.44 in    
Wind  
Wind Speed 11 mph (SE)    
Max Wind Speed 23 mph    
Max Gust Speed 36 mph    
Visibility 10 miles    
Events      
Averages and records for this station are not official NWS values.
T = Trace of Precipitation, MM = Missing Value Source: NWS Daily Summary

Daily Weather History Graph

Daily Weather History Graph

Search for Another Location

Airport or City:

Trip Planner

Search our weather history database for the weather conditions in past years. The results will help you decide how hot, cold, wet, or windy it might be!

Date:

Astronomy

Jan. 20, 2013 Rise Set
Actual Time 9:49 AM AKST 5:40 PM AKST
Civil Twilight 9:05 AM AKST 6:24 PM AKST
Nautical Twilight 8:18 AM AKST 7:11 PM AKST
Astronomical Twilight 7:33 AM AKST 7:56 PM AKST
Moon 12:51 PM AKST (1/20) 4:27 AM AKST (1/20)
Length of Visible Light 9h 19m
Length of Day
7h 51m
Waxing Gibbous, 67% of the Moon is Illuminated
Jan 20
Waxing Gibbous
Jan 26
Full
Feb 3
Last Quarter
Feb 9
New
Feb 17
First Quarter

Hourly Weather History & Observations

Time (AKST) Temp. Windchill Dew Point Humidity Pressure Visibility Wind Dir Wind Speed Gust Speed Precip Events Conditions
12:16 AM 39.2 °F 33.0 °F 28.4 °F 65% 29.29 in 9.0 mi ESE 9.2 mph 31.1 mph 0.01 in   Overcast
12:36 AM 41.0 °F 34.7 °F 28.4 °F 61% 29.32 in 8.0 mi SE 10.4 mph 28.8 mph 0.01 in   Overcast
12:56 AM 39.2 °F 35.0 °F 28.4 °F 65% 29.33 in 10.0 mi SSE 5.8 mph 20.7 mph 0.01 in   Overcast
1:16 AM 39.2 °F 34.2 °F 28.4 °F 65% 29.35 in 10.0 mi NNE 6.9 mph 26.5 mph N/A   Overcast
1:36 AM 39.2 °F 35.0 °F 28.4 °F 65% 29.36 in 7.0 mi South 5.8 mph 16.1 mph N/A   Overcast
1:56 AM 39.2 °F 37.0 °F 28.4 °F 65% 29.38 in 10.0 mi WSW 3.5 mph - 0.01 in   Overcast
2:16 AM 39.2 °F 33.6 °F 26.6 °F 61% 29.39 in 10.0 mi SE 8.1 mph 21.9 mph 0.01 in   Overcast
2:36 AM 39.2 °F 28.7 °F 26.6 °F 61% 29.39 in 10.0 mi South 23.0 mph 33.4 mph 0.01 in   Overcast
2:56 AM 37.4 °F 33.8 °F 24.8 °F 60% 29.42 in 10.0 mi South 4.6 mph 16.1 mph 0.01 in   Overcast
3:16 AM 39.2 °F 33.0 °F 24.8 °F 56% 29.43 in 10.0 mi SW 9.2 mph 19.6 mph N/A   Overcast
3:36 AM 39.2 °F 34.2 °F 24.8 °F 56% 29.44 in 10.0 mi SSW 6.9 mph - N/A   Overcast
3:56 AM 39.2 °F 31.6 °F 24.8 °F 56% 29.44 in 10.0 mi SSE 12.7 mph 23.0 mph N/A   Overcast
4:16 AM 39.2 °F 34.2 °F 24.8 °F 56% 29.45 in 10.0 mi SE 6.9 mph 21.9 mph N/A   Overcast
4:36 AM 39.2 °F 34.2 °F 26.6 °F 61% 29.45 in 10.0 mi SE 6.9 mph 25.3 mph N/A   Overcast
4:56 AM 39.2 °F 29.8 °F 28.4 °F 65% 29.45 in 10.0 mi SSE 18.4 mph 28.8 mph N/A   Overcast
5:16 AM 39.2 °F 30.2 °F 28.4 °F 65% 29.45 in 10.0 mi South 17.3 mph 23.0 mph N/A   Mostly Cloudy
5:36 AM 39.2 °F 29.8 °F 26.6 °F 61% 29.46 in 10.0 mi SSE 18.4 mph 34.5 mph N/A   Overcast
5:56 AM 39.2 °F 31.2 °F 26.6 °F 61% 29.47 in 10.0 mi SE 13.8 mph 25.3 mph N/A   Overcast
6:16 AM 39.2 °F 31.6 °F 28.4 °F 65% 29.47 in 10.0 mi SE 12.7 mph 19.6 mph N/A   Overcast
6:36 AM 39.2 °F 30.5 °F 28.4 °F 65% 29.48 in 10.0 mi SE 16.1 mph 24.2 mph N/A   Overcast
6:56 AM 39.2 °F 32.0 °F 28.4 °F 65% 29.48 in 10.0 mi SE 11.5 mph 23.0 mph N/A   Overcast
7:16 AM 39.2 °F 30.2 °F 30.2 °F 70% 29.48 in 10.0 mi SSE 17.3 mph 27.6 mph N/A   Overcast
7:36 AM 39.2 °F 31.2 °F 30.2 °F 70% 29.48 in 10.0 mi SE 13.8 mph 24.2 mph N/A   Overcast
7:56 AM 39.2 °F 30.8 °F 30.2 °F 70% 29.48 in 10.0 mi SE 15.0 mph 21.9 mph N/A   Overcast
8:16 AM 37.4 °F 28.9 °F 30.2 °F 75% 29.49 in 7.0 mi ESE 13.8 mph 35.7 mph N/A   Overcast
8:36 AM 37.4 °F 29.8 °F 30.2 °F 75% 29.49 in 8.0 mi SSE 11.5 mph 23.0 mph N/A   Mostly Cloudy
8:56 AM 37.4 °F 27.5 °F 30.2 °F 75% 29.49 in 10.0 mi SE 18.4 mph 27.6 mph N/A   Overcast
9:16 AM 39.2 °F 32.0 °F 30.2 °F 70% 29.50 in 10.0 mi SE 11.5 mph 18.4 mph N/A   Overcast
9:36 AM 39.2 °F 33.6 °F 32.0 °F 75% 29.51 in 10.0 mi ESE 8.1 mph 20.7 mph N/A   Overcast
9:56 AM 39.2 °F 30.8 °F 32.0 °F 75% 29.51 in 10.0 mi ESE 15.0 mph 25.3 mph N/A   Overcast
10:16 AM 39.2 °F 30.5 °F 32.0 °F 75% 29.51 in 10.0 mi SE 16.1 mph 28.8 mph N/A   Overcast
10:36 AM 39.2 °F 31.2 °F 32.0 °F 75% 29.52 in 10.0 mi ESE 13.8 mph 21.9 mph N/A   Overcast